C6187 MYGF-SVBC

Flight info

Callsign C6187
Flight time N/A
Altitude 35000
Route BUUCK2 CEGUR BR63V HANKX DCT DONEZ A555 DUKKY BR2L WRECK DCT ALBBE DCT BEPAL DCT AFTON DCT BNA
Aircraft A320/M-SDE3FGHIRWY/LB1

Departure

Time 2026-05-06 18:44
Airport Grand Bahama International Airport (MYGF)

Arrival

Time N/A
Airport General José Antonio Anzoategui International Airport (SVBC)
Time Latitude Longitude Altitude Speed Heading
2026-05-06 18:29 26.54847 -78.70265 24 ft 0 kts 277°
2026-05-06 18:41 26.54858 -78.70271 24 ft 6 kts 336°
2026-05-06 18:41 26.54928 -78.70287 26 ft 13 kts 352°
2026-05-06 18:41 26.54960 -78.70359 27 ft 12 kts 274°
2026-05-06 18:41 26.54964 -78.70462 25 ft 14 kts 270°
2026-05-06 18:42 26.54966 -78.70575 26 ft 16 kts 272°
2026-05-06 18:42 26.54970 -78.70700 27 ft 15 kts 272°
2026-05-06 18:42 26.54973 -78.70806 24 ft 12 kts 271°
2026-05-06 18:42 26.54974 -78.70900 24 ft 12 kts 269°
2026-05-06 18:43 26.54978 -78.70984 24 ft 10 kts 287°
2026-05-06 18:43 26.55025 -78.71009 24 ft 7 kts 353°
2026-05-06 18:43 26.55080 -78.71009 24 ft 10 kts
2026-05-06 18:43 26.55162 -78.70967 26 ft 20 kts 49°
2026-05-06 18:44 26.55353 -78.70606 27 ft 92 kts 63°
2026-05-06 18:44 26.55780 -78.69743 25 ft 161 kts 60°
2026-05-06 18:44 26.56351 -78.68547 387 ft 166 kts 62°
2026-05-06 18:44 26.56806 -78.67431 1102 ft 157 kts 64°
2026-05-06 18:45 26.57266 -78.66268 1836 ft 171 kts 60°
2026-05-06 18:45 26.57973 -78.65032 2249 ft 214 kts 56°
2026-05-06 18:45 26.58492 -78.63317 2674 ft 253 kts 88°
2026-05-06 18:45 26.58331 -78.61991 3444 ft 260 kts 108°
2026-05-06 18:46 26.56893 -78.59880 5105 ft 267 kts 146°
2026-05-06 18:46 26.55156 -78.59129 6277 ft 272 kts 167°
2026-05-06 18:46 26.53287 -78.58686 7418 ft 277 kts 167°
2026-05-06 18:46 26.51394 -78.58170 8509 ft 283 kts 165°
2026-05-06 18:47 26.49501 -78.57494 9539 ft 289 kts 160°
2026-05-06 18:47 26.47662 -78.56542 10459 ft 299 kts 146°
2026-05-06 18:47 26.46007 -78.54991 10989 ft 322 kts 137°
2026-05-06 18:47 26.44391 -78.53155 11516 ft 342 kts 134°
2026-05-06 18:48 26.42750 -78.51128 12051 ft 361 kts 131°
2026-05-06 18:48 26.41074 -78.48962 12594 ft 378 kts 130°
2026-05-06 18:48 26.39353 -78.46671 13141 ft 393 kts 129°
2026-05-06 18:48 26.37591 -78.44270 13683 ft 406 kts 128°
2026-05-06 18:49 26.35794 -78.41784 14414 ft 413 kts 128°
2026-05-06 18:49 26.33983 -78.39263 15161 ft 419 kts 127°
2026-05-06 18:49 26.32155 -78.36710 15853 ft 425 kts 127°
2026-05-06 18:49 26.30289 -78.34102 16543 ft 431 kts 127°
2026-05-06 18:50 26.28414 -78.31478 17228 ft 435 kts 127°
2026-05-06 18:50 26.26512 -78.28819 17877 ft 441 kts 127°
2026-05-06 18:50 26.25241 -78.27042 18281 ft 445 kts 127°
2026-05-06 18:50 26.23303 -78.24331 18899 ft 450 kts 127°
2026-05-06 18:51 26.21347 -78.21597 19473 ft 455 kts 127°
2026-05-06 18:51 26.19368 -78.18831 20047 ft 459 kts 127°
2026-05-06 18:51 26.17365 -78.16033 20613 ft 463 kts 127°
2026-05-06 18:51 26.14689 -78.12299 21303 ft 469 kts 127°
2026-05-06 18:52 26.13307 -78.10374 21643 ft 472 kts 127°
2026-05-06 18:52 26.11251 -78.07511 22119 ft 476 kts 127°
2026-05-06 18:52 26.09171 -78.04619 22619 ft 480 kts 127°
2026-05-06 18:52 26.07075 -78.01704 23065 ft 485 kts 127°
2026-05-06 18:53 26.04960 -77.98767 23525 ft 488 kts 128°
2026-05-06 18:53 26.02832 -77.95813 23947 ft 492 kts 128°
2026-05-06 18:53 26.00677 -77.92826 24384 ft 496 kts 128°
2026-05-06 18:53 25.98512 -77.89828 24779 ft 500 kts 128°
2026-05-06 18:54 25.96321 -77.86800 25171 ft 503 kts 127°
2026-05-06 18:54 25.94122 -77.83762 25551 ft 507 kts 127°
2026-05-06 18:54 25.91899 -77.80695 25925 ft 510 kts 127°
2026-05-06 18:54 25.89659 -77.77606 26252 ft 515 kts 127°
2026-05-06 18:55 25.87408 -77.74502 26657 ft 517 kts 127°
2026-05-06 18:55 25.85156 -77.71401 27149 ft 517 kts 127°
2026-05-06 18:55 25.82896 -77.68293 27613 ft 517 kts 127°
2026-05-06 18:55 25.80637 -77.65188 28080 ft 517 kts 127°
2026-05-06 18:56 25.78410 -77.62128 28547 ft 517 kts 127°
2026-05-06 18:56 25.76152 -77.59024 29015 ft 517 kts 126°
2026-05-06 18:56 25.73893 -77.55924 29433 ft 517 kts 126°
2026-05-06 18:56 25.71626 -77.52815 29874 ft 517 kts 126°
2026-05-06 18:57 25.69197 -77.49878 30376 ft 519 kts 135°
2026-05-06 18:57 25.66492 -77.47227 30832 ft 519 kts 138°
2026-05-06 18:57 25.63716 -77.44686 31324 ft 517 kts 139°
2026-05-06 18:57 25.60906 -77.42189 31798 ft 516 kts 140°
2026-05-06 18:58 25.58089 -77.39723 32246 ft 515 kts 140°
2026-05-06 18:58 25.55272 -77.37279 32684 ft 514 kts 141°
2026-05-06 18:58 25.52457 -77.34849 33144 ft 513 kts 141°
2026-05-06 18:58 25.49634 -77.32421 33575 ft 512 kts 141°
2026-05-06 18:59 25.46826 -77.30010 33984 ft 511 kts 141°
2026-05-06 18:59 25.44014 -77.27601 34390 ft 510 kts 141°
2026-05-06 18:59 25.41208 -77.25200 34745 ft 510 kts 141°
2026-05-06 18:59 25.38411 -77.22809 34951 ft 507 kts 141°
2026-05-06 19:00 25.35621 -77.20425 35039 ft 507 kts 141°
2026-05-06 19:00 25.30015 -77.15642 35096 ft 510 kts 141°
2026-05-06 19:01 25.24395 -77.10854 35104 ft 508 kts 141°
2026-05-06 19:01 25.18802 -77.06101 35106 ft 507 kts 141°
2026-05-06 19:02 25.13200 -77.01344 35106 ft 508 kts 141°
2026-05-06 19:02 25.07624 -76.96616 35109 ft 508 kts 141°
2026-05-06 19:03 25.02018 -76.91869 35108 ft 507 kts 141°
2026-05-06 19:03 24.96426 -76.87136 35109 ft 507 kts 141°
2026-05-06 19:04 24.90819 -76.82397 35106 ft 507 kts 141°
2026-05-06 19:04 24.85228 -76.77676 35107 ft 506 kts 141°
2026-05-06 19:05 24.79634 -76.72958 35111 ft 506 kts 141°
2026-05-06 19:05 24.74034 -76.68241 35111 ft 507 kts 141°
2026-05-06 19:06 24.68431 -76.63527 35110 ft 506 kts 141°
2026-05-06 19:06 24.62844 -76.58831 35109 ft 505 kts 141°
2026-05-06 19:07 24.57298 -76.54174 35110 ft 505 kts 141°
2026-05-06 19:07 24.51706 -76.49486 35101 ft 506 kts 141°
2026-05-06 19:08 24.46102 -76.44797 35100 ft 505 kts 141°
2026-05-06 19:08 24.40514 -76.40121 35101 ft 505 kts 141°
2026-05-06 19:09 24.34930 -76.35454 35095 ft 506 kts 141°
2026-05-06 19:09 24.29344 -76.30785 35086 ft 503 kts 140°
2026-05-06 19:09 24.26841 -76.28133 35098 ft 500 kts 129°
2026-05-06 19:10 24.24611 -76.25195 35084 ft 500 kts 126°
2026-05-06 19:10 24.20410 -76.19183 35089 ft 500 kts 124°
2026-05-06 19:11 24.16252 -76.13027 35093 ft 499 kts 123°
2026-05-06 19:11 24.12182 -76.06945 35095 ft 498 kts 123°
2026-05-06 19:12 24.08086 -76.00813 35081 ft 500 kts 123°
2026-05-06 19:12 24.03986 -75.94674 35093 ft 499 kts 123°
2026-05-06 19:13 23.99889 -75.88547 35089 ft 498 kts 123°
2026-05-06 19:13 23.95794 -75.82428 35096 ft 499 kts 123°
2026-05-06 19:14 23.91695 -75.76307 35094 ft 500 kts 123°
2026-05-06 19:14 23.87586 -75.70183 35096 ft 499 kts 123°
2026-05-06 19:15 23.83480 -75.64073 35083 ft 499 kts 123°
2026-05-06 19:15 23.79369 -75.57960 35088 ft 499 kts 123°
2026-05-06 19:16 23.75248 -75.51842 35090 ft 500 kts 123°
2026-05-06 19:16 23.71128 -75.45732 35096 ft 500 kts 123°
2026-05-06 19:17 23.67001 -75.39620 35084 ft 500 kts 123°
2026-05-06 19:17 23.62873 -75.33512 35096 ft 500 kts 123°
2026-05-06 19:18 23.58595 -75.27514 35097 ft 504 kts 129°
2026-05-06 19:18 23.53714 -75.22021 35094 ft 505 kts 132°
2026-05-06 19:19 23.48693 -75.16666 35079 ft 506 kts 133°
2026-05-06 19:19 23.43668 -75.11384 35085 ft 505 kts 133°
2026-05-06 19:20 23.38602 -75.06086 35093 ft 506 kts 133°
2026-05-06 19:20 23.33507 -75.00770 35083 ft 506 kts 133°
2026-05-06 19:21 23.28421 -74.95472 35085 ft 506 kts 133°
2026-05-06 19:21 23.23337 -74.90183 35093 ft 507 kts 133°
2026-05-06 19:22 23.18237 -74.84885 35096 ft 507 kts 133°
2026-05-06 19:22 23.13130 -74.79586 35095 ft 507 kts 133°
2026-05-06 19:23 23.08067 -74.74338 35096 ft 506 kts 133°
2026-05-06 19:23 23.02966 -74.69052 35095 ft 507 kts 133°
2026-05-06 19:24 22.97844 -74.63754 35094 ft 508 kts 133°
2026-05-06 19:24 22.92742 -74.58484 35095 ft 506 kts 133°
2026-05-06 19:25 22.87623 -74.53201 35088 ft 509 kts 133°
2026-05-06 19:25 22.82495 -74.47911 35081 ft 508 kts 133°
2026-05-06 19:26 22.77387 -74.42649 35079 ft 507 kts 133°
2026-05-06 19:26 22.72258 -74.37371 35079 ft 509 kts 133°
2026-05-06 19:27 22.67123 -74.32095 35080 ft 508 kts 133°
2026-05-06 19:27 22.62029 -74.26866 35082 ft 507 kts 133°
2026-05-06 19:28 22.56899 -74.21603 35085 ft 509 kts 133°
2026-05-06 19:28 22.51761 -74.16339 35086 ft 508 kts 133°
2026-05-06 19:29 22.46636 -74.11095 35083 ft 507 kts 133°
2026-05-06 19:29 22.41492 -74.05839 35078 ft 509 kts 133°
2026-05-06 19:30 22.36384 -74.00623 35077 ft 508 kts 133°
2026-05-06 19:30 22.31216 -73.95351 35085 ft 508 kts 133°
2026-05-06 19:31 22.26095 -73.90133 35075 ft 509 kts 132°
2026-05-06 19:31 22.18369 -73.82268 35084 ft 508 kts 132°
2026-05-06 19:32 22.13233 -73.77044 35083 ft 508 kts 133°
2026-05-06 19:32 22.08073 -73.71803 35084 ft 509 kts 133°
2026-05-06 19:33 22.02925 -73.66581 35082 ft 508 kts 133°
2026-05-06 19:33 21.97783 -73.61364 35087 ft 508 kts 133°
2026-05-06 19:34 21.92629 -73.56149 35080 ft 508 kts 133°
2026-05-06 19:34 21.87480 -73.50939 35075 ft 507 kts 133°
2026-05-06 19:35 21.82166 -73.45914 35071 ft 509 kts 136°
2026-05-06 19:35 21.76697 -73.41065 35073 ft 509 kts 137°
2026-05-06 19:36 21.71239 -73.36299 35066 ft 508 kts 137°
2026-05-06 19:36 21.65743 -73.31520 35071 ft 507 kts 137°
2026-05-06 19:37 21.60255 -73.26756 35073 ft 507 kts 137°
2026-05-06 19:37 21.55693 -73.22800 35072 ft 506 kts 137°
2026-05-06 19:38 21.50178 -73.18022 35075 ft 506 kts 137°
2026-05-06 19:38 21.44727 -73.13302 35077 ft 507 kts 137°
2026-05-06 19:39 21.39199 -73.08516 35069 ft 507 kts 137°
2026-05-06 19:39 21.33754 -73.03810 35070 ft 505 kts 137°
2026-05-06 19:40 21.28285 -72.99088 35079 ft 506 kts 137°
2026-05-06 19:40 21.22797 -72.94353 35074 ft 505 kts 137°
2026-05-06 19:41 21.17316 -72.89629 35076 ft 504 kts 137°
2026-05-06 19:41 21.11837 -72.84909 35074 ft 505 kts 138°
2026-05-06 19:42 21.06371 -72.80207 35073 ft 504 kts 138°
2026-05-06 19:42 21.00899 -72.75510 35070 ft 504 kts 138°
2026-05-06 19:43 20.95439 -72.70822 35066 ft 503 kts 138°
2026-05-06 19:43 20.89988 -72.66145 35067 ft 503 kts 138°
2026-05-06 19:44 20.84522 -72.61460 35067 ft 503 kts 138°
2026-05-06 19:44 20.79072 -72.56792 35064 ft 501 kts 138°
2026-05-06 19:45 20.73614 -72.52124 35062 ft 503 kts 138°
2026-05-06 19:45 20.68156 -72.47458 35057 ft 502 kts 138°
2026-05-06 19:46 20.62709 -72.42809 35055 ft 501 kts 138°
2026-05-06 19:46 20.57260 -72.38163 35052 ft 501 kts 138°
2026-05-06 19:47 20.51817 -72.33524 35052 ft 501 kts 138°
2026-05-06 19:47 20.46413 -72.28922 35055 ft 500 kts 138°
2026-05-06 19:48 20.40786 -72.24533 35047 ft 502 kts 144°
2026-05-06 19:48 20.34883 -72.20526 35044 ft 502 kts 145°
2026-05-06 19:49 20.28936 -72.16618 35043 ft 502 kts 146°
2026-05-06 19:49 20.22977 -72.12739 35045 ft 502 kts 146°
2026-05-06 19:50 20.17010 -72.08864 35043 ft 502 kts 146°
2026-05-06 19:50 20.11046 -72.04998 35046 ft 501 kts 146°
2026-05-06 19:51 20.05096 -72.01147 35045 ft 501 kts 146°
2026-05-06 19:51 19.99131 -71.97289 35046 ft 502 kts 146°
2026-05-06 19:52 19.93200 -71.93453 35046 ft 502 kts 146°
2026-05-06 19:52 19.87237 -71.89602 35044 ft 501 kts 146°
2026-05-06 19:53 19.81281 -71.85759 35046 ft 501 kts 146°
2026-05-06 19:53 19.75325 -71.81917 35046 ft 501 kts 146°
2026-05-06 19:54 19.69368 -71.78077 35040 ft 501 kts 146°
2026-05-06 19:54 19.63407 -71.74237 35038 ft 500 kts 146°
2026-05-06 19:55 19.57451 -71.70404 35037 ft 500 kts 147°
2026-05-06 19:55 19.51509 -71.66584 35032 ft 499 kts 147°
2026-05-06 19:56 19.45573 -71.62771 35030 ft 498 kts 147°
2026-05-06 19:56 19.39656 -71.58974 35036 ft 497 kts 147°
2026-05-06 19:57 19.33721 -71.55167 35041 ft 499 kts 147°
2026-05-06 19:57 19.27797 -71.51372 35041 ft 497 kts 147°
2026-05-06 19:58 19.21922 -71.47613 35040 ft 496 kts 147°
2026-05-06 19:58 19.16017 -71.43839 35037 ft 496 kts 148°
2026-05-06 19:59 19.10114 -71.40069 35041 ft 495 kts 148°
2026-05-06 19:59 19.04240 -71.36286 35040 ft 493 kts 146°
2026-05-06 20:00 18.98512 -71.32258 35031 ft 495 kts 144°
2026-05-06 20:00 18.92835 -71.28142 35032 ft 494 kts 144°
2026-05-06 20:01 18.87187 -71.24021 35032 ft 493 kts 144°
2026-05-06 20:01 18.81539 -71.19894 35042 ft 494 kts 144°
2026-05-06 20:02 18.75896 -71.15773 35045 ft 492 kts 144°
2026-05-06 20:02 18.70288 -71.11674 35045 ft 485 kts 144°
2026-05-06 20:03 18.64868 -71.07673 35049 ft 467 kts 145°
2026-05-06 20:03 18.62246 -71.05769 35058 ft 449 kts 145°
2026-05-06 20:03 18.59715 -71.03941 35058 ft 433 kts 145°
2026-05-06 20:04 18.57276 -71.02178 35063 ft 418 kts 145°
2026-05-06 20:04 18.54926 -71.00477 35060 ft 403 kts 145°
2026-05-06 20:04 18.52650 -70.98828 35062 ft 389 kts 145°
2026-05-06 20:04 18.50460 -70.97240 35064 ft 376 kts 145°
2026-05-06 20:05 18.48341 -70.95704 35060 ft 363 kts 145°
2026-05-06 20:05 18.46295 -70.94220 35069 ft 350 kts 145°
2026-05-06 20:05 18.44324 -70.92789 35068 ft 338 kts 145°
2026-05-06 20:05 18.42423 -70.91408 35073 ft 325 kts 145°
2026-05-06 20:06 18.40598 -70.90082 35073 ft 313 kts 145°
2026-05-06 20:06 18.38845 -70.88809 35071 ft 299 kts 145°
2026-05-06 20:06 18.37175 -70.87595 35074 ft 284 kts 145°
2026-05-06 20:06 18.35583 -70.86442 35018 ft 272 kts 145°
2026-05-06 20:07 18.34028 -70.85311 34592 ft 275 kts 145°
2026-05-06 20:07 18.32430 -70.84146 34123 ft 281 kts 146°
2026-05-06 20:07 18.30841 -70.82984 33911 ft 274 kts 146°
2026-05-06 20:07 18.29288 -70.81855 33673 ft 270 kts 146°
2026-05-06 20:08 18.27737 -70.80728 33269 ft 273 kts 146°
2026-05-06 20:08 18.26170 -70.79592 32911 ft 273 kts 146°
2026-05-06 20:08 18.24617 -70.78466 32660 ft 269 kts 146°
2026-05-06 20:08 18.23082 -70.77354 32347 ft 268 kts 147°
2026-05-06 20:09 18.21540 -70.76237 31980 ft 270 kts 147°
2026-05-06 20:09 18.20001 -70.75121 31685 ft 268 kts 147°
2026-05-06 20:09 18.18470 -70.74016 31397 ft 266 kts 147°
2026-05-06 20:09 18.16951 -70.72917 31083 ft 265 kts 147°
2026-05-06 20:10 18.15434 -70.71818 30758 ft 265 kts 147°
2026-05-06 20:10 18.13918 -70.70723 30443 ft 264 kts 147°
2026-05-06 20:10 18.12411 -70.69635 30147 ft 262 kts 147°
2026-05-06 20:10 18.10929 -70.68561 29833 ft 262 kts 147°
2026-05-06 20:11 18.09432 -70.67480 29544 ft 260 kts 147°
2026-05-06 20:11 18.07948 -70.66411 29290 ft 257 kts 147°
2026-05-06 20:11 18.06480 -70.65348 28993 ft 256 kts 147°
2026-05-06 20:11 18.05013 -70.64293 28719 ft 254 kts 147°
2026-05-06 20:12 18.03563 -70.63249 28461 ft 251 kts 147°
2026-05-06 20:12 18.02124 -70.62214 28175 ft 250 kts 147°
2026-05-06 20:12 18.00696 -70.61184 27894 ft 248 kts 147°
2026-05-06 20:12 17.99277 -70.60159 27632 ft 246 kts 147°
2026-05-06 20:13 17.97870 -70.59146 27386 ft 243 kts 147°
2026-05-06 20:13 17.96480 -70.58143 27098 ft 242 kts 147°
2026-05-06 20:13 17.95095 -70.57145 26821 ft 241 kts 147°
2026-05-06 20:13 17.93719 -70.56154 26568 ft 238 kts 147°
2026-05-06 20:14 17.92361 -70.55175 26314 ft 236 kts 146°
2026-05-06 20:14 17.91027 -70.54213 26029 ft 235 kts 146°
2026-05-06 20:14 17.89681 -70.53242 25767 ft 233 kts 146°
2026-05-06 20:14 17.88351 -70.52286 25513 ft 231 kts 146°
2026-05-06 20:15 17.87030 -70.51334 25237 ft 230 kts 146°
2026-05-06 20:15 17.85718 -70.50387 24965 ft 228 kts 146°
2026-05-06 20:15 17.84414 -70.49447 24711 ft 226 kts 146°
2026-05-06 20:15 17.83116 -70.48513 24462 ft 224 kts 146°
2026-05-06 20:16 17.81840 -70.47594 24212 ft 222 kts 146°
2026-05-06 20:16 17.80571 -70.46680 23941 ft 221 kts 146°
2026-05-06 20:16 17.79308 -70.45772 23694 ft 219 kts 146°
2026-05-06 20:16 17.78059 -70.44870 23427 ft 218 kts 146°
2026-05-06 20:17 17.76812 -70.43970 23179 ft 216 kts 146°
2026-05-06 20:17 17.75581 -70.43083 22917 ft 215 kts 146°
2026-05-06 20:17 17.74350 -70.42196 22645 ft 214 kts 146°
2026-05-06 20:17 17.73131 -70.41316 22413 ft 211 kts 146°
2026-05-06 20:18 17.71919 -70.40443 22141 ft 211 kts 146°
2026-05-06 20:18 17.70709 -70.39571 21886 ft 209 kts 146°
2026-05-06 20:18 17.69513 -70.38710 21640 ft 208 kts 146°
2026-05-06 20:18 17.68336 -70.37863 21368 ft 208 kts 146°
2026-05-06 20:19 17.67150 -70.37011 21135 ft 205 kts 146°
2026-05-06 20:19 17.65962 -70.36157 20884 ft 204 kts 146°
2026-05-06 20:19 17.64807 -70.35327 20613 ft 204 kts 146°
2026-05-06 20:19 17.63640 -70.34490 20379 ft 202 kts 146°
2026-05-06 20:20 17.62491 -70.33664 20155 ft 200 kts 146°
2026-05-06 20:20 17.61343 -70.32837 19886 ft 200 kts 147°
2026-05-06 20:20 17.60199 -70.32012 19643 ft 198 kts 147°
2026-05-06 20:20 17.59070 -70.31202 19426 ft 196 kts 147°
2026-05-06 20:21 17.57944 -70.30395 19145 ft 197 kts 147°
2026-05-06 20:21 17.56817 -70.29583 18911 ft 195 kts 147°
2026-05-06 20:21 17.55705 -70.28786 18671 ft 193 kts 147°
2026-05-06 20:21 17.54595 -70.27994 18431 ft 192 kts 147°
2026-05-06 20:22 17.53496 -70.27206 18201 ft 191 kts 147°
2026-05-06 20:22 17.52404 -70.26423 17946 ft 190 kts 147°
2026-05-06 20:22 17.51316 -70.25642 17706 ft 189 kts 147°
2026-05-06 20:22 17.50232 -70.24866 17477 ft 188 kts 147°
2026-05-06 20:23 17.49156 -70.24098 17231 ft 186 kts 147°
2026-05-06 20:23 17.48100 -70.23341 16987 ft 187 kts 147°
2026-05-06 20:23 17.47030 -70.22574 16767 ft 185 kts 147°
2026-05-06 20:23 17.45973 -70.21816 16535 ft 183 kts 147°
2026-05-06 20:24 17.44918 -70.21059 16273 ft 184 kts 147°
2026-05-06 20:24 17.43867 -70.20307 16057 ft 181 kts 147°
2026-05-06 20:24 17.43177 -70.19815 15899 ft 180 kts 147°
2026-05-06 20:24 17.42138 -70.19072 15651 ft 181 kts 147°
2026-05-06 20:25 17.41103 -70.18334 15437 ft 179 kts 147°
2026-05-06 20:25 17.40082 -70.17602 15188 ft 178 kts 147°
2026-05-06 20:25 17.39059 -70.16869 14961 ft 177 kts 147°
2026-05-06 20:25 17.38046 -70.16145 14752 ft 175 kts 147°
2026-05-06 20:26 17.37057 -70.15436 14581 ft 170 kts 146°
2026-05-06 20:26 17.36081 -70.14735 14289 ft 171 kts 147°
2026-05-06 20:26 17.35097 -70.14028 14025 ft 172 kts 146°
2026-05-06 20:26 17.34105 -70.13316 13764 ft 173 kts 146°
2026-05-06 20:27 17.33119 -70.12613 13565 ft 170 kts 146°
2026-05-06 20:27 17.32144 -70.11916 13331 ft 170 kts 146°
2026-05-06 20:27 17.31169 -70.11216 13118 ft 168 kts 146°
2026-05-06 20:27 17.30208 -70.10528 12899 ft 167 kts 146°
2026-05-06 20:28 17.29243 -70.09841 12658 ft 167 kts 146°
2026-05-06 20:28 17.28299 -70.09168 12447 ft 166 kts 146°
2026-05-06 20:28 17.27344 -70.08487 12206 ft 166 kts 146°
2026-05-06 20:28 17.26398 -70.07809 12015 ft 163 kts 146°
2026-05-06 20:29 17.25481 -70.07154 11842 ft 158 kts 146°
2026-05-06 20:29 17.24564 -70.06500 11542 ft 161 kts 146°
2026-05-06 20:29 17.23651 -70.05848 11334 ft 158 kts 146°
2026-05-06 20:29 17.22736 -70.05195 11053 ft 161 kts 145°
2026-05-06 20:30 17.21833 -70.04552 10921 ft 152 kts 145°
2026-05-06 20:30 17.20062 -70.03290 10396 ft 154 kts 144°
2026-05-06 20:30 17.19176 -70.02654 10151 ft 155 kts 144°
2026-05-06 20:31 17.18282 -70.02017 9928 ft 154 kts 144°
2026-05-06 20:31 17.17405 -70.01392 9744 ft 152 kts 144°
2026-05-06 20:31 17.16531 -70.00771 9512 ft 152 kts 144°
2026-05-06 20:31 17.15662 -70.00150 9311 ft 150 kts 144°
2026-05-06 20:32 17.14817 -69.99548 9138 ft 145 kts 144°
2026-05-06 20:32 17.13973 -69.98946 8849 ft 148 kts 143°
2026-05-06 20:32 17.13130 -69.98337 8648 ft 145 kts 143°
2026-05-06 20:32 17.12291 -69.97734 8363 ft 150 kts 143°
2026-05-06 20:33 17.11431 -69.97117 8165 ft 147 kts 144°
2026-05-06 20:33 17.10598 -69.96523 7996 ft 146 kts 143°
2026-05-06 20:33 17.09754 -69.95919 7785 ft 146 kts 143°
2026-05-06 20:33 17.08932 -69.95339 7592 ft 144 kts 144°
2026-05-06 20:34 17.08104 -69.94752 7410 ft 140 kts 143°
2026-05-06 20:34 17.07308 -69.94188 7179 ft 140 kts 143°
2026-05-06 20:34 17.06504 -69.93614 6941 ft 140 kts 143°
2026-05-06 20:34 17.05700 -69.93038 6696 ft 142 kts 143°
2026-05-06 20:35 17.04890 -69.92460 6533 ft 138 kts 143°
2026-05-06 20:35 17.04101 -69.91895 6303 ft 138 kts 143°
2026-05-06 20:35 17.03305 -69.91323 6083 ft 138 kts 143°
2026-05-06 20:35 17.02516 -69.90762 5862 ft 138 kts 143°
2026-05-06 20:36 17.01730 -69.90203 5700 ft 133 kts 143°
2026-05-06 20:36 17.00961 -69.89658 5448 ft 135 kts 143°
2026-05-06 20:36 17.00180 -69.89103 5232 ft 134 kts 142°
2026-05-06 20:36 16.99410 -69.88554 5004 ft 136 kts 142°
2026-05-06 20:37 16.98627 -69.87994 4795 ft 135 kts 142°
2026-05-06 20:37 16.97861 -69.87453 4606 ft 133 kts 142°
2026-05-06 20:37 16.97089 -69.86901 4365 ft 135 kts 142°
2026-05-06 20:37 16.96323 -69.86353 4152 ft 134 kts 142°
2026-05-06 20:38 16.95556 -69.85808 3949 ft 132 kts 142°
2026-05-06 20:38 16.94804 -69.85277 3748 ft 130 kts 141°
2026-05-06 20:38 16.94059 -69.84746 3502 ft 132 kts 141°
2026-05-06 20:38 16.93310 -69.84210 3289 ft 131 kts 141°
2026-05-06 20:39 16.92544 -69.83663 3065 ft 133 kts 141°
2026-05-06 20:39 16.91796 -69.83129 2881 ft 131 kts 141°
2026-05-06 20:39 16.91030 -69.82588 2632 ft 134 kts 142°
2026-05-06 20:39 16.90267 -69.82051 2469 ft 131 kts 141°
2026-05-06 20:40 16.89516 -69.81510 2252 ft 131 kts 141°
2026-05-06 20:40 16.88770 -69.80971 2052 ft 130 kts 141°
2026-05-06 20:40 16.88021 -69.80436 1832 ft 130 kts 141°
2026-05-06 20:40 16.87259 -69.79893 1557 ft 136 kts 142°
2026-05-06 20:41 16.86490 -69.79353 1432 ft 130 kts 142°
2026-05-06 20:41 16.85730 -69.78814 1173 ft 135 kts 142°
2026-05-06 20:41 16.84964 -69.78267 1032 ft 131 kts 142°
2026-05-06 20:41 16.84222 -69.77737 807 ft 133 kts 142°
2026-05-06 20:42 16.83458 -69.77191 631 ft 132 kts 143°
2026-05-06 20:42 16.82700 -69.76653 413 ft 133 kts 143°
2026-05-06 20:42 16.81935 -69.76106 219 ft 133 kts 143°
2026-05-06 20:42 16.81169 -69.75561 25 ft 133 kts 143°
2026-05-06 20:43 16.80741 -69.75255 -5 ft 1 kts 146°
2026-05-06 21:10 16.80740 -69.75255 7 ft 0 kts 145°
2026-05-06 21:10 16.80739 -69.75255 7 ft 0 kts 145°
2026-05-06 21:10 16.80739 -69.75254 7 ft 0 kts 145°